Regional Weather Roundup
Issued by NWS

Home | Current Version | Previous Version | Text Only | Print | Product List | Glossary On
Versions: 1 2 3 4 5 6 7 8 9 10 11 12 13 14 15 16 17 18 19 20 21 22 23 24 25 26 27 28 29 30 31 32 33 34 35 36 37 38 39 40 41 42 43 44 45 46 47 48 49 50
000
ASUS43 KMKX 061100
RWRWI

WISCONSIN REGIONAL WEATHER ROUNDUP
NATIONAL WEATHER SERVICE MILWAUKEE/SULLIVAN WI
600 AM CDT MON JUL 06 2015

NOTE: "FAIR" INDICATES FEW OR NO CLOUDS BELOW 12,000 FEET WITH NO
SIGNIFICANT WEATHER AND/OR OBSTRUCTIONS TO VISIBILITY.

WIZ001-002-006>008-014>016-023>028-061200-
NORTHWEST WISCONSIN

CITY           SKY/WX    TMP DP  RH WIND       PRES   REMARKS
SUPERIOR ARPT  DRIZZLE   66  66 100 CALM      29.83R
ASHLAND        CLOUDY    65  65 100 E3        29.84R
HAYWARD        RAIN      67  65  93 S8        29.83F
SIREN          RAIN      67  65  96 S8        29.81S
CUMBERLAND     HVY RAIN  64  64 100 SE6       29.84F
RICE LAKE      RAIN      67  66  95 E6        29.85F
CHETEK         RAIN      68  67  98 CALM      29.85S
LADYSMITH      RAIN      68  66  95 E3        29.88F
EAU CLAIRE     TSTM      68  66  94 NE13      29.82R VSB 3/4
MENOMONIE      TSTM      70  69  98 W5        29.87R VSB 1/2
NEW RICHMOND   HVY RAIN  66  66  98 E6        29.85R
OSCEOLA        HVY RAIN  67  67 100 SE12      29.85R
$$

WIZ003>005-009-010-017-018-061200-
NORTH CENTRAL WISCONSIN

CITY           SKY/WX    TMP DP  RH WIND       PRES   REMARKS
MANITOWISH WTR RAIN      66  66 100 S8        29.87S
ARBOR VITAE    CLOUDY    69  66  89 S9        29.89S
WOODRUFF       CLOUDY    69  66  89 S9        29.89S
RHINELANDER    CLOUDY    69  64  84 SW5       29.92S
EAGLE RIVER    CLOUDY    68  63  83 S6        29.88F HAZE
LAND O LAKES   CLOUDY    69  64  84 S5        29.89R
PHILLIPS       RAIN      66  66  98 S5        29.89R
TOMAHAWK       CLOUDY    67  63  89 CALM      29.91S
MEDFORD        CLOUDY    66  64  95 E3        29.89F FOG
MERRILL        CLOUDY    68  65  92 S3        29.91F
$$

WIZ029-030-035-036-043>047-061200-
CENTRAL WISCONSIN

CITY           SKY/WX    TMP DP  RH WIND       PRES   REMARKS
WAUSAU         CLOUDY    67  63  87 SE6       29.88F FOG
MOSINEE        PTCLDY    64  64 100 SE6       29.91F FOG
MARSHFIELD     CLOUDY    68  63  84 SE6       29.87F HAZE
STEVENS POINT  CLOUDY    66  63  89 S6        29.91F
WAUPACA        CLOUDY    67  65  96 SE5       29.92F FOG
WAUTOMA        NOT AVBL
WISC RAPIDS    CLOUDY    68  63  84 SE5       29.89F
CAMP DOUGLAS   NOT AVBL
$$

WIZ011>013-019>022-031-037>040-048>050-061200-
NORTHEAST WISCONSIN

CITY           SKY/WX    TMP DP  RH WIND       PRES   REMARKS
ANTIGO         CLOUDY    63  63  99 S5        29.93F FOG
SHAWANO        CLOUDY    68  64  86 CALM      29.94R HAZE
OCONTO         CLOUDY    66  66 100 SW3       29.93R
STURGEON BAY   CLOUDY    64  57  77 S8        29.97R
GREEN BAY      MOCLDY    65  62  90 MISG      29.94R FOG
MANITOWOC      NOT AVBL
APPLETON       MOCLDY    66  63  88 SW9       29.94S
CLINTONVILLE   CLOUDY    63  61  94 CALM      29.91F FOG
OSHKOSH        MOCLDY    67  62  84 SW9       29.94R HAZE
$$

WIZ032>034-041-042-053>061-061200-
SOUTHWEST WISCONSIN

CITY           SKY/WX    TMP DP  RH WIND       PRES   REMARKS
LA CROSSE      CLOUDY    74  67  78 S17       29.83S
SPARTA         CLOUDY    71  64  78 CALM      29.86F
VIROQUA        CLOUDY    69  67  93 S13       29.88F
BOSCOBEL       CLOUDY    72  66  81 VRB5      29.88F HAZE
PRAIRIE DU CHI CLOUDY    73  65  78 SE3       29.86F
PLATTEVILLE    CLOUDY    69  67  92 S9        29.91F
$$

WIZ056-057-062-063-064-067-068-061200-
SOUTH CENTRAL WISCONSIN

CITY           SKY/WX    TMP DP  RH WIND       PRES   REMARKS
REEDSBURG      CLOUDY    69  65  88 S8        29.89F
BARABOO/DELLS  CLOUDY    68  63  83 S7        29.90F HAZE
LONE ROCK      NOT AVBL
MINERAL POINT  CLOUDY    68  64  88 SE8       29.92F FOG
MADISON        CLOUDY    70  63  78 S10       29.92F HAZE
MIDDLETON      MOCLDY    68  65  89 S5        29.94R
WATERTOWN      PTCLDY    64  64 100 SE5       29.95R FOG
MONROE         MOCLDY    64  63  94 S8        29.95R FOG
JANESVILLE     CLOUDY    70  64  83 S10       29.95R FOG
$$

WIZ051-052-058>065-066-070>072-061200-
SOUTHEAST WISCONSIN

CITY           SKY/WX    TMP DP  RH WIND       PRES   REMARKS
MILWAUKEE      PTCLDY    66  61  84 S6        29.98R
WAUKESHA       CLEAR     63  61  94 CALM      29.99R FOG
MILWAUKEE/TIMM PTCLDY    63  59  88 S3        29.98R
RACINE         CLEAR     65  60  84 S6        30.00R HAZE
BURLINGTON       N/A     58  57  99 CALM      29.97R FOG
KENOSHA        CLEAR     65  61  87 S7        29.99R FOG
FOND DU LAC    PTCLDY    70  64  81 SW10      29.94R
SHEBOYGAN      PTCLDY    60  58  92 CALM      29.96R FOG
WEST BEND      PTCLDY    61  59  94 CALM      29.97R FOG
JUNEAU         PTCLDY    65  62  91 S7        29.96R FOG
$$

LSZ147-162-061200-
LAKE SUPERIOR

STATION/POSITION TIME  TEMP    WIND        PRES    WAVE
                       AIR SEA DIR/SP/G            HT/PER
                 (UTC) (F)     (DEG/KT/KT) (MB)    (FT/S)
W MID LAKE BUOY  0950   49 39  250/  4/  6 1008.7F   1/ 4
DEVILS ISLAND    1000   63     230/  9/ 11 1009.4R
PORT WING        1000   67     270/  3/  6 1010.2R
SAXON HARBOR     1000   67      CALM  /  2 1009.8R
$$

LMZ867-665-643>646-061200-
LAKE MICHIGAN

STATION/POSITION TIME  TEMP    WIND        PRES    WAVE
                       AIR SEA DIR/SP/G            HT/PER
                 (UTC) (F)     (DEG/KT/KT) (MB)    (FT/S)
CHAMBERS ISLAND  1000   69     170/  6/ 13 1013.2R
N MID LAKE BUOY  0950   57 54  200/ 16/ 19 1013.4S   2/ 4
NORTHPORT PIER   1000   64     150/  4/  7 1013.5R
SISTER BAY       1029   66     170/ 11/ 13   N/A
ALGOMA LAKESHORE 1041          230/  9/ 11   N/A
KEWAUNEE LAKESHO 1000   60     190/  9/ 12 1012.8F
SHEBOYGAN LAKESH 1000   62     180/ 12/ 12 1013.9F
PORT WASHINGTON  1000   62     190/  4/  7 1014.6
ATWATER BUOY     1000   63 59  150/ 10/ 10 1015.1F
MILWAUKEE LAKESH 1000   64     170/  6/  6   N/A
KENOSHA   LAKESH 1000   66     180/  6/  7 1014.6F
$$

TC  - TEMPERATURE IN CELSIUS
VSB - VISIBILITY IN STATUTE MILES
WCI - WIND CHILL INDEX
HX  - HEAT INDEX




USA.gov is the U.S. government's official web portal to all federal, state and local government web resources and services.